STARLINK-1783 (46686 NORAD) Tracking and Keplerian Element Data

This shows tracking and keplerian element data for the satellite.

Feedback or suggestion? Click here.




ElementValue
Catalog46686
NameSTARLINK-1783
Epoch Orbit655
Epoch Day331.16668981
Epoch Year2020
RAAN280.0673
Inclination53.0553
Eccentricity0.0001251
Argument of Perigee64.2804
Mean Anonmoly243.603
Mean Motion15.37142267
Decay Rate-0.01079431
L11 46686U 20073S 20331.16668981 -.01079431 00000-0 -31889-1 0 9993
L22 46686 53.0553 280.0673 0001251 64.2804 243.6030 15.37142267 6554

Live tracking and technical data element details for STARLINK-1783 (NORAD 46686). STARLINK-1783 can be tracked NOW for your location showing map with azimuth and elevation plus other details from your city location.

Track the satellite on the map from your city or location and see movement details for azimuth, elevation, latitude, longitude, range, height, and movement on the map or in text.







IsCatalogInMostPopularTable: catalog: 46686, numindb: 7
Update: records affected: 1



GetName: 46686 STARLINK-1783

Hit Count: updated at: Fri, 27 Nov 2020 00:19:30 GMT